Weather in Shirobokov

Russia / Stavropol Krai     45°20′37″N   41°46′08″E
temp.,
°C
wind,
m/s
gust,
m/s
humid.,
%
clouds,
%
prec.,
mm/h
press.,
hPa
HPBL,
m
12 april, mon
mon1200:00+7wsw1193100 0.0 101810
03:00+6wsw2295100 0.0 101922
06:00+6wsw3998100 0.0 1020260
09:00+9wnw4788100 0.1 1021520
12:00+8wnw5787100 0.1 1022660
15:00+7w4893100 0.1 1022451
18:00+7wsw3596100 0.0 1023281
21:00+7wsw2397100 0.1 1023148
13 april, tue
tue1300:00+7wsw2297100 0.0 1023106
03:00+7sw1197100 0.1 102348
06:00+7w1197100 0.0 102342
09:00+8nw1294100 0.0 1023174
12:00+10n2288100 0.0 1022456
15:00+9nw1191100 0.1 1022136
18:00+9w239665 0.2 1022164
21:00+8wnw1196100 0.2 102217
14 april, wed
wed1400:00+8n2397100 0.0 102095
03:00+8nne1499100 0.0 1019178
06:00+8nnw1199100 0.0 101889
09:00+10wnw2288100 0.0 1018366
12:00+12w4376100 0.1 1017881
15:00+13w3370100 0.1 1017745
18:00+11wsw568692 0.2 1017510
21:00+9sw2593100 0.3 1018172
15 april, thu
thu1500:00+8sw249231 0.0 1017153
03:00+6ssw22935 0.0 101730
06:00+6ssw22924 0.0 101719
09:00+12ssw22710 0.0 1016444
12:00+17wnw11510 0.0 10151045
15:00+18nnw22425 0.0 10141326
18:00+16n2256100 0.0 101415
21:00+12ne226296 0.0 101514
16 april, fri
fri1600:00+11e2266100 0.0 101410
03:00+10w4982100 0.1 1016363
06:00+10w3797100 0.7 1017406
09:00+9w3688100 1.9 1018388
12:00+13wnw6768100 0.1 10181304
15:00+14w5563100 0.4 10181177
18:00+13w237537 0.6 1018137
21:00+9w71093100 2.8 1019645